Regional Weather Roundup
Issued by NWS

Home | Current Version | Previous Version | Text Only | Print | Product List | Glossary On
Versions: 1 2 3 4 5 6 7 8 9 10 11 12 13 14 15 16 17 18 19 20 21 22 23 24 25 26 27 28 29 30 31 32 33 34 35 36 37 38 39 40 41 42 43 44 45 46 47 48 49 50
000
ASUS45 KBOU 240910
RWRCO

WEATHER ROUNDUP FOR COLORADO
NATIONAL WEATHER SERVICE DENVER/BOULDER CO
200 AM MST WED JAN 24 2018

NOTE: "FAIR" INDICATES FEW OR NO CLOUDS BELOW 12000 FEET WITH NO
SIGNIFICANT WEATHER AND/OR OBSTRUCTIONS TO VISIBILITY.

COZ001>005-013-030-031-241000-
...NORTHWEST COLORADO...

CITY           SKY/WX    TMP DP  RH WIND       PRES   REMARKS
CRAIG          FAIR       1  -4  79 W5        30.36S WCI  -9
HAYDEN         FAIR      12   7  80 E13       30.36S WCI  -3
MEEKER         FAIR       4   1  88 CALM      30.37S
RABBIT EARS PA FAIR     N/A N/A N/A W9G17     30.26R
STEAMBOAT SPGS FAIR       5   3  89 SE3       30.35F
WALDEN         FAIR      14   3  62 S9        30.28R WCI   2
$$

COZ006>008-011-241000-
...WEST CENTRAL VALLEYS...

CITY           SKY/WX    TMP DP  RH WIND       PRES   REMARKS
GRAND JUNCTION FAIR      21  16  81 E13       30.41S WCI   9
MONTROSE       FAIR      16   9  74 SE8       30.44S WCI   5
EAGLE          FAIR      10   5  80 E6        30.44R WCI   0
RIFLE          FAIR      18  13  80 NE3       30.43S
DELTA          FAIR      18  11  73 NE5       30.44S WCI  11
NUCLA          FAIR      19  12  73 SE10      30.43F WCI   8
$$

COZ017>023-064>068-241000-
...SOUTHWEST COLORADO...

CITY           SKY/WX    TMP DP  RH WIND       PRES   REMARKS
DURANGO        FAIR      12   9  87 N6        30.39S WCI   3
CORTEZ         FAIR      11   8  88 E3        30.41S
PAGOSA SPRINGS FAIR      10   8  92 CALM      30.38S
TELLURIDE      FAIR      17   6  62 SE7       30.38S WCI   7
WOLF CREEK PAS FAIR      18  -8  32 SW7       30.39S WCI   8
$$

COZ009-010-012-014-032>034-037-058>063-241000-
...CENTRAL COLORADO...

CITY           SKY/WX    TMP DP  RH WIND       PRES   REMARKS
ASPEN          FAIR       6   0  76 SW7       30.36R WCI  -6
BUENA VISTA    FAIR      10   0  64 E5        30.29S WCI   2
COPPER MTN     NOT AVBL
BERTHOUD PASS  FAIR       3  -8  60 NW40G47   30.17S WCI -24
COTTONWOOD PAS FAIR      30  -4  22 W17G26    30.26R WCI  18
GUNNISON       FAIR      -2  -5  87 CALM      30.44R
KREMMLING      FAIR       1  -4  78 CALM      30.40R
LEADVILLE      FAIR      11  -3  53 N8        30.28R WCI  -1
MONARCH PASS   FAIR      10   5  79 W43       30.36S THUNDER WCI -15
SALIDA         FAIR      20   6  55 N12       30.36F WCI   8
SUNLIGHT       FAIR      10   5  79 SW15      30.35S WCI  -6
WILKERSON PASS FAIR      14  -6  41 W14G23    30.24S WCI  -1
$$

COZ069>075-241000-
...SAN LUIS VALLEY/SANGRE DE CRISTO MOUNTAINS...

CITY           SKY/WX    TMP DP  RH WIND       PRES   REMARKS
ALAMOSA        FAIR       0  -5  79 W8        30.36R WCI -14
DEL NORTE      FAIR      12  -2  53 W5        30.36S WCI   4
LA VETA PASS   FAIR      18   3  53 S35G44      N/A  WCI  -3
SAGUACHE       FAIR      12   1  62 NW14      30.36S WCI  -3
$$

COZ035-036-038>040-241000-
...NORTHERN COLORADO FRONT RANGE...

CITY           SKY/WX    TMP DP  RH WIND       PRES   REMARKS
DENVER INTL AP FAIR      24   9  52 S14       30.19S WCI  12
DMNS CITY PARK NOT AVBL
AURORA         CLEAR     23   9  55 S13       30.20S WCI  11
FRONT RANGE AP FAIR      22  11  63 S10       30.20S WCI  11
ERIE MUNI ARPT FAIR      11   8  87 CALM      30.26F
BOULDER MUN AP FAIR      19  12  73 CALM      30.19F
CENTENNIAL     FAIR      19   7  59 SE8       30.19S WCI   9
BROOMFIELD     FAIR      25  12  58 N7        30.18F WCI  17
FORT COLLINS   FAIR      20  14  77 N5        30.22S WCI  13
LONGMONT       FAIR      14   9  79 CALM      30.23F
$$

COZ041-046-047-076>085-087-088-241000-
...PIKES PEAK/PALMER DIVIDE AND SOUTHERN FOOTHILLS...

CITY           SKY/WX    TMP DP  RH WIND       PRES   REMARKS
COLO. SPRINGS  FAIR      16   7  67 N7        30.25S WCI   6
A. F. ACADEMY  FAIR      10   3  72 N8        30.23S WCI  -1
SCHRIEVER AFB  FAIR      17   8  66 CALM      30.25S
CHEYENNE MTN   FAIR      23   8  52 CALM      30.17S
ELLICOTT         N/A    N/A N/A N/A CALM      30.23F
FALCON         FAIR      14   5  66 W6        30.24R WCI   5
FORT CARSON    FAIR      18   7  62 N10       30.23F WCI   6
LIMON          FAIR       3   0  87 N6        30.25S WCI  -8
MONUMENT HILL  FAIR      18   5  57 S10       30.22R WCI   6
CANON CITY     FAIR      30  10  43 W12       30.25S WCI  21
WALSENBURG     NOT AVBL
TRINIDAD       FAIR      25   7  46 SW10      30.26S WCI  15
$$

COZ042>045-048>051-090-091-241000-
...NORTHEAST COLORADO...

CITY           SKY/WX    TMP DP  RH WIND       PRES   REMARKS
GREELEY ARPT   FAIR      11   7  84 W5        30.23F WCI   3
AKRON          FAIR      21  10  62 S13       30.22F WCI   9
BURLINGTON     FAIR      10   6  84 W7        30.27F WCI  -1
WRAY           FAIR      12   9  85 W7        30.27F WCI   2
YUMA           FAIR      12   7  79 SW9       30.25S WCI   0
STERLING       FAIR      10   9  92 S5        30.24F WCI   2
HOLYOKE        FAIR      14   9  79 SW7       30.26F WCI   4
FORT MORGAN    FAIR      15   9  74 W5        30.23F WCI   8
$$

COZ086-089-092>099-241000-
...SOUTHEAST COLORADO...

CITY           SKY/WX    TMP DP  RH WIND       PRES   REMARKS
PUEBLO         FAIR      15   9  76 W5        30.27F WCI   8
LA JUNTA       FAIR      18  11  74 CALM      30.28S
LAMAR          FAIR      13   9  84 E3        30.30S
SPRINGFIELD      N/A     13   8  81 SW9       30.31F WCI   1
$$



USA.gov is the U.S. government's official web portal to all federal, state and local government web resources and services.